Location: Astronomy Club of Akron Observatory
(40.9700°N, 81.5606°W)
Time: 04:00:41
(UTC-04:00)

ISS - Pass Details

Date: 22 July 2018
Orbit: 402 x 408 km, 51.6° (Epoch: 19 July)

Event Time Altitude Azimuth Distance (km) Brightness Sun altitude
Rises 22:10:16 0° 251° (WSW) 2,310 0.4 -13.0°
Reaches altitude 10° 22:12:25 10° 259° (W) 1,455 -0.5 -13.3°
Maximum altitude 22:15:30 39° 331° (NNW) 618 -2.3 -13.7°
Drops below altitude 10° 22:18:37 10° 42° (NE) 1,464 -1.0 -14.1°
Sets 22:20:48 0° 50° (NE) 2,328 0.0 -14.4°
